Hourly Data Report for October 01, 2015

All times are specified in Local Standard Time (LST). Add 1 hour to adjust for Daylight Saving Time where and when it is observed.

ST LEONARD CS
NEW BRUNSWICK

47°09'28.050" N
67°49'55.014" W
245.00 m
810I001
71019
WIY

Download Data

Hourly Data (October 2015)
Hourly Data Report for October 1, 2015
Temp Definition
°C
Dew Point Temp Definition
°C
Rel Hum Definition
%
Wind Dir Definition
10's deg

Wind Spd Definition
km/h
Visibility Definition
km
Stn Press Definition
kPa
Hmdx Definition


Wind Chill Definition


Weather Definition


TIME
00:00 6.6 5.8 95 35 18   98.82     LegendNANA
01:00 6.5 5.7 95 35 17   98.85     LegendNANA
02:00 6.5 5.7 94 35 16   98.85     LegendNANA
03:00 6.6 5.6 93 35 13   98.93     LegendNANA
04:00 6.5 5.3 92 35 13   98.99     LegendNANA
05:00 6.4 5.3 92 34 11   99.12     LegendNANA
06:00 6.4 5.0 91 34 14   99.16     LegendNANA
07:00 5.6 4.1 90 34 12   99.24     LegendNANA
08:00 6.1 3.5 84 35 11   99.38     LegendNANA
09:00 6.5 3.6 82 35 16   99.39     LegendNANA
10:00 8.0 4.8 80 36 13   99.49     LegendNANA
11:00 9.1 3.4 67 2 20   99.50     LegendNANA
12:00 9.2 2.5 63 1 18   99.57     LegendNANA
13:00 11.2 2.9 57 1 20   99.55     LegendNANA
14:00 11.6 2.1 52 1 17   99.55     LegendNANA
15:00 11.5 1.5 50 1 17   99.54     LegendNANA
16:00 10.9 0.6 49 2 15   99.64     LegendNANA
17:00 9.9 0.7 53 36 17   99.70     LegendNANA
18:00 8.0 0.9 61 36 12   99.75     LegendNANA
19:00 6.0 0.5 68 35 8   99.86     LegendNANA
20:00 5.0 1.0 75 36 5   99.90     LegendNANA
21:00 4.6 0.7 76 36 6   99.92     LegendNANA
22:00 3.3 0.6 83 35 7   99.89     LegendNANA
23:00 2.5 0.2 85 35 7   99.89     LegendNANA

Notes on Data Quality.

Legend

  • E = Estimated
  • M = Missing
  • NA = Not Available
  • ‡ = Partner data that is not subject to review by the National Climate Archives
Date modified: